EDT,Max TemperatureF,Mean TemperatureF,Min TemperatureF,Max Dew PointF,MeanDew PointF,Min DewpointF,Max Humidity, Mean Humidity, Min Humidity, Max Sea Level PressureIn, Mean Sea Level PressureIn, Min Sea Level PressureIn, Max VisibilityMiles, Mean VisibilityMiles, Min VisibilityMiles, Max Wind SpeedMPH, Mean Wind SpeedMPH, Max Gust SpeedMPH,PrecipitationIn, CloudCover, Events, WindDirDegrees
2013-10-1,72,60,48,60,54,48,100,88,64,30.01,29.97,29.93,10,5,0,16,3,22,0.00,5,Fog,214
2013-10-2,77,64,53,59,49,36,97,64,23,30.08,30.03,29.94,10,9,4,8,6,,0.00,2,,281
2013-10-3,77,64,52,64,58,48,90,76,64,30.07,30.00,29.92,10,10,8,10,3,,0.00,4,,177
2013-10-4,78,70,64,66,64,62,93,79,64,30.03,29.99,29.94,10,9,5,12,4,,0.03,6,Rain,230
2013-10-5,73,68,64,67,64,63,100,90,81,30.05,29.99,29.87,10,6,2,12,3,18,0.25,8,Rain,135
2013-10-6,69,62,54,67,62,51,100,90,78,29.87,29.76,29.62,10,8,2,18,7,30,0.33,8,Rain,191
2013-10-7,57,51,45,52,46,41,94,83,62,30.12,29.79,29.68,10,9,2,18,9,25,0.06,5,Rain,252
2013-10-8,66,54,42,46,41,38,93,67,38,30.29,30.24,30.13,10,10,10,12,3,16,0.00,0,,156
2013-10-9,69,56,42,51,44,40,96,72,42,30.34,30.28,30.23,10,10,7,10,2,,0.00,0,,134
2013-10-10,69,56,42,52,43,39,100,78,37,30.24,30.20,30.15,10,7,0,9,1,,0.00,1,Fog,136
2013-10-11,71,56,41,49,43,37,93,67,31,30.17,30.13,30.09,10,10,9,7,1,,0.00,1,,110
2013-10-12,75,62,48,58,53,46,100,82,43,30.12,30.09,30.04,10,7,0,10,2,,0.00,4,Fog,155
2013-10-13,66,59,51,58,45,34,94,63,30,30.35,30.23,30.09,10,9,6,14,6,22,0.00,2,,311
2013-10-14,63,54,45,43,41,39,90,67,43,30.41,30.35,30.28,10,10,10,9,6,,0.00,0,,30
2013-10-15,64,51,39,59,51,37,97,86,72,30.27,30.02,29.82,10,7,2,14,5,20,0.10,6,Rain,158
2013-10-16,62,56,51,59,51,42,94,82,58,29.90,29.83,29.79,10,9,5,17,9,28,0.00,5,,232
2013-10-17,52,48,46,48,46,43,94,88,76,29.89,29.81,29.74,10,8,2,17,7,23,0.23,8,Rain,231
2013-10-18,62,52,43,43,40,36,97,73,39,29.91,29.87,29.83,10,10,5,14,7,22,0.00,3,,238
2013-10-19,50,44,41,41,39,35,93,83,68,29.88,29.80,29.72,10,8,4,15,7,22,0.14,6,Rain,241
2013-10-20,55,46,37,41,38,36,93,70,49,29.91,29.87,29.83,10,10,10,14,6,22,0.02,6,Rain,217
2013-10-21,54,46,39,46,40,32,86,71,59,29.85,29.83,29.79,10,10,8,20,11,24,0.02,7,Rain,226
2013-10-22,48,40,33,34,28,25,75,61,46,29.90,29.87,29.84,10,10,10,16,10,25,0.00,5,,257
2013-10-23,46,39,32,33,29,21,92,69,39,29.93,29.86,29.81,10,10,10,16,9,22,0.00,4,,288
2013-10-24,46,38,30,32,28,25,93,75,46,30.17,30.01,29.91,10,10,9,17,10,24,0.00,4,,277
2013-10-25,46,37,30,32,29,25,93,71,49,30.32,30.23,30.09,10,10,9,15,10,23,0.00,4,Snow,260
2013-10-26,48,42,35,38,31,25,93,68,49,30.05,29.86,29.76,10,9,2,21,14,31,0.08,7,Rain,247
2013-10-27,50,41,32,31,30,28,89,69,48,30.07,30.02,29.99,10,10,10,10,7,16,0.00,4,,243
2013-10-28,50,39,30,36,31,28,89,70,61,30.41,30.26,30.05,10,10,10,13,5,21,0.00,6,,39
2013-10-29,46,42,36,32,29,27,76,64,49,30.45,30.38,30.27,10,10,10,7,5,,0.00,7,,64
2013-10-30,62,46,30,49,38,29,96,73,47,30.25,30.12,29.96,10,8,2,12,3,,0.07,3,Rain,147
2013-10-31,62,56,51,59,56,48,100,93,88,29.96,29.54,29.15,10,5,2,17,9,30,1.23,8,Rain,185